Regional Weather Roundup
Issued by NWS

Home | Current Version | Previous Version | Text Only | Print | Product List | Glossary On
Versions: 1 2 3 4 5 6 7 8 9 10 11 12 13 14 15 16 17 18 19 20 21 22 23 24 25 26 27 28 29 30 31 32 33 34 35 36 37 38 39 40 41 42 43 44 45 46 47 48 49 50
000
ASUS46 KSTO 221915
RWRCA

NORTHERN AND CENTRAL CA REGIONAL WEATHER ROUNDUP
NATIONAL WEATHER SERVICE SACRAMENTO CA
1200 PM PDT MON MAY 22 2017

NOTE: FAIR INDICATES FEW OR NO CLOUDS BELOW 12,000 FEET WITH NO
SIGNIFICANT WEATHER AND/OR OBSTRUCTIONS TO VISIBILITY.

CAZ001-003-222000-
NORTHWEST AREA

CITY           SKY/WX    TMP DP  RH WIND       PRES   REMARKS
CRESCENT CITY  SUNNY     61  55  81 SW7       29.99S
UKIAH          SUNNY     87  51  28 SE5       29.94F
$$

CAZ006-505>513-222000-
BAY AREA

CITY           SKY/WX    TMP DP  RH WIND       PRES   REMARKS
SANTA ROSA     SUNNY     75  54  47 VRB3      29.95F
SAN RAFAEL     N/A       65  MM  MM MISG
NAPA           SUNNY     69  55  60 S6        29.97F
CONCORD        SUNNY     79  56  45 NW9       29.95F
OAKLAND CITY   N/A      MM  MM  MM MISG
OAKLAND        MOSUNNY   66  54  65 W6        29.98F
SAN FRAN CITY  N/A       60  MM  71 MISG
SAN FRAN ARPT  SUNNY     66  52  60 NW10      29.97F
LIVERMORE      SUNNY     83  52  34 VRB5      29.94F
HAYWARD        SUNNY     69  52  54 W7        29.97F
REDWOOD CITY   N/A       69  MM  63 MISG
MOFFETT ARPT   SUNNY     70  57  63 N6        29.97F
SAN JOSE ARPT  MOSUNNY   74  57  55 VRB5      29.96F
$$
CAZ034-037-514>518-222000-
CENTRAL COAST

CITY           SKY/WX    TMP DP  RH WIND       PRES   REMARKS
WATSONVILLE    SUNNY     64  56  75 S8        29.99F
SALINAS        SUNNY     69  52  54 W7        29.98F
MONTEREY       MOSUNNY   58  51  78 NW7       30.00F
SAN LUIS OBISP SUNNY     73  55  53 NW7       29.98S
SANTA MARIA    SUNNY     63  53  70 W10       30.00R
$$
CAZ015-016-222000-
NORTHERN SACRAMENTO VALLEY

CITY           SKY/WX    TMP DP  RH WIND       PRES   REMARKS
REDDING        SUNNY     95  42  16 NW7       29.93F HX  91
RED BLUFF      SUNNY     95  43  16 N10       29.93F HX  91
OROVILLE       SUNNY     89  55  31 W8        29.94S
$$
CAZ016>018-222000-
SOUTHERN SACRAMENTO VALLEY

CITY           SKY/WX    TMP DP  RH WIND       PRES   REMARKS
AUBURN         SUNNY     84  54  34 W6        30.00R
BEALE AFB      SUNNY     88  53  29 W3        29.91S
LINCOLN        FAIR      88  50  27 W5        29.93S
MARYSVILLE     SUNNY     89  53  29 CALM      29.92S
SAC INTL ARPT  MOSUNNY   88  56  33 VRB3      29.92S
MATHER AIRPORT SUNNY     86  54  32 CALM      29.93S
DOWNTOWN SAC   N/A       88  MM  MM MISG
SAC EXEC ARPT  SUNNY     88  55  32 VRB5      29.93S
VACAVILLE      SUNNY     91  56  30 CALM      29.94S
TRAVIS AFB     SUNNY     84  56  38 CALM      29.92S
$$
CAZ019>021-222000-
SAN JOAQUIN VALLEY

CITY           SKY/WX    TMP DP  RH WIND       PRES   REMARKS
STOCKTON       SUNNY     90  55  30 VRB6      29.93S
MODESTO        SUNNY     91  50  24 NW6       29.92F
MERCED         SUNNY     90  51  26 NW8       29.92F
LEMOORE        SUNNY     92  47  21 VRB5      29.92F
FRESNO         MOSUNNY   89  48  24 SE5       29.93F
HANFORD        SUNNY     89  54  30 CALM      29.93F
BAKERSFIELD    SUNNY     92  44  19 W7        29.93F
$$
CAZ011-012-071-222000-
NORTHERN MOUNTAINS

CITY           SKY/WX    TMP DP  RH WIND       PRES   REMARKS
YREKA          SUNNY     80  45  28 CALM      30.11F
MOUNT SHASTA   SUNNY     84  42  22 CALM      30.12F
ALTURAS        SUNNY     77  37  23 CALM      30.20F
$$
CAZ011-012-071-222000-
SIERRA NEVADA MTNS

CITY           SKY/WX    TMP DP  RH WIND       PRES   REMARKS
BLUE CANYON    SUNNY     75  32  20 W8        30.22S
TAHOE VLY ARPT SUNNY     69  35  28 VRB7      30.28F
MAMMOTH LAKES  CLOUDY    70  28  21 SE7       30.32F
$$




USA.gov is the U.S. government's official web portal to all federal, state and local government web resources and services.